Glasgow, MT

6:06 PM MST on December 13, 2017 (GMT -0700)
Wokal-Glasgow International

Weather History for KGGW - April, 2012

Change the Weather History Date:

Monday, April 16, 2012

  Actual Average Record
Temperature  
Mean Temperature 41 °F 45 °F  
Max Temperature 52 °F 58 °F 80 °F (1926)
Min Temperature 30 °F 32 °F 6 °F (1896)
Degree Days  
Heating Degree Days 24 20  
Month to date heating degree days 331 362  
Since 1 July heating degree days 6531 7766  
Cooling Degree Days 0 0  
Month to date cooling degree days 0 0  
Year to date cooling degree days 0 0  
Moisture  
Dew Point 23 °F    
Average Humidity 53    
Maximum Humidity 69    
Minimum Humidity 36    
Precipitation  
Precipitation 0.00 in 0.03 in 0.50 in (1963)
Month to date precipitation 0.17 0.37  
Year to date precipitation 1.47 1.42  
Snow  
Snow 0.00 in 0.10 in 2.00 in (1920)
Month to date snowfall 0.1 1.3  
Since 1 July snowfall 25.7 33.0  
Snow Depth 0.00 in    
Sea Level Pressure  
Sea Level Pressure 30.07 in    
Wind  
Wind Speed 9 mph (WNW)    
Max Wind Speed 16 mph    
Max Gust Speed 21 mph    
Visibility 10 miles    
Events      
T = Trace of Precipitation, MM = Missing Value Source: NWS Daily Summary

Daily Weather History Graph

Daily Weather History Graph

Search for Another Location

Airport or City:

Trip Planner

Search our weather history database for the weather conditions in past years. The results will help you decide how hot, cold, wet, or windy it might be!

Date:

Astronomy

Apr. 16, 2012 Rise Set
Actual Time 6:13 AM MDT 7:59 PM MDT
Civil Twilight 5:40 AM MDT 8:32 PM MDT
Nautical Twilight 5:00 AM MDT 9:13 PM MDT
Astronomical Twilight 4:16 AM MDT 9:57 PM MDT
Moon 4:02 AM MDT (4/16) 3:39 PM MDT (4/16)
Length of Visible Light 14h 51m
Length of Day
13h 45m
Waning Crescent, 18% of the Moon is Illuminated
Apr 16
Waning Crescent
Apr 21
New
Apr 29
First Quarter
May 5
Full
May 12
Last Quarter

Hourly Weather History & Observations

Time (MDT) Temp. Windchill Dew Point Humidity Pressure Visibility Wind Dir Wind Speed Gust Speed Precip Events Conditions
12:53 AM 33.1 °F 23.9 °F 21.0 °F 61% 30.12 in 10.0 mi NNW 12.7 mph - N/A   Overcast
1:53 AM 33.1 °F 26.9 °F 19.9 °F 59% 30.12 in 10.0 mi NW 6.9 mph - N/A   Overcast
2:53 AM 32.0 °F 23.0 °F 21.0 °F 64% 30.13 in 10.0 mi NW 11.5 mph - N/A   Overcast
3:53 AM 30.9 °F 22.2 °F 21.0 °F 67% 30.13 in 10.0 mi NW 10.4 mph - N/A   Overcast
4:53 AM 30.9 °F 22.8 °F 19.9 °F 64% 30.13 in 10.0 mi NW 9.2 mph - N/A   Overcast
5:53 AM 30.0 °F 23.2 °F 19.9 °F 66% 30.14 in 10.0 mi WNW 6.9 mph - N/A   Overcast
6:14 AM 30.2 °F 23.4 °F 19.4 °F 64% 30.07 in 10.0 mi WNW 6.9 mph - N/A   Overcast
6:53 AM 30.9 °F 22.8 °F 19.0 °F 61% 30.14 in 10.0 mi NW 9.2 mph - N/A   Overcast
7:53 AM 30.9 °F 23.5 °F 19.9 °F 64% 30.15 in 10.0 mi WNW 8.1 mph - N/A   Overcast
8:53 AM 33.1 °F 25.5 °F 19.9 °F 59% 30.15 in 10.0 mi NW 9.2 mph - N/A   Overcast
9:53 AM 35.1 °F 31.0 °F 21.0 °F 57% 30.15 in 10.0 mi WNW 4.6 mph - N/A   Overcast
10:30 AM 35.6 °F 31.7 °F 21.2 °F 56% 30.07 in 10.0 mi Variable 4.6 mph - N/A   Mostly Cloudy
10:53 AM 37.0 °F 34.5 °F 21.0 °F 52% 30.14 in 10.0 mi Variable 3.5 mph - N/A   Overcast
11:53 AM 39.9 °F 33.9 °F 21.9 °F 49% 30.12 in 10.0 mi West 9.2 mph - N/A   Mostly Cloudy
12:53 PM 42.8 °F 38.0 °F 23.0 °F 46% 30.03 in 10.0 mi NW 8.1 mph - N/A   Mostly Cloudy
1:53 PM 45.0 °F 41.2 °F 24.1 °F 44% 30.07 in 10.0 mi Variable 6.9 mph - N/A   Scattered Clouds
2:53 PM 48.0 °F - 25.0 °F 41% 30.05 in 10.0 mi WSW 11.5 mph 16.1 mph N/A   Clear
3:53 PM 50.0 °F - 25.0 °F 38% 30.03 in 10.0 mi West 8.1 mph - N/A   Scattered Clouds
4:53 PM 50.0 °F - 25.0 °F 38% 30.02 in 10.0 mi WSW 5.8 mph - N/A   Scattered Clouds
5:53 PM 51.1 °F - 26.1 °F 38% 30.01 in 10.0 mi WSW 9.2 mph - N/A   Clear
6:53 PM 51.1 °F - 27.0 °F 39% 30.00 in 10.0 mi SSW 8.1 mph - N/A   Clear
7:53 PM 46.0 °F 41.9 °F 27.0 °F 47% 30.00 in 10.0 mi SE 8.1 mph - N/A   Clear
8:53 PM 39.9 °F 34.5 °F 25.0 °F 55% 30.00 in 10.0 mi ESE 8.1 mph - N/A   Clear
9:53 PM 37.0 °F 30.4 °F 24.1 °F 59% 30.00 in 10.0 mi ESE 9.2 mph - N/A   Clear
10:53 PM 37.9 °F 30.9 °F 24.1 °F 57% 29.98 in 10.0 mi East 10.4 mph - N/A   Scattered Clouds
11:53 PM 41.0 °F 33.9 °F 25.0 °F 53% 29.96 in 10.0 mi ESE 12.7 mph - N/A   Overcast